Location: Fort Worth, Tx
(32.7431°N, 97.3695°W)
Time: 19:32:49
(UTC-04:00)

Transit 4A - Pass Details

Date: 29 February 2024
Orbit: 871 x 972 km, 66.8° (Epoch: 22 April)

Event Time Altitude Azimuth Distance (km) Brightness Sun altitude
Rises 00:59:04 0° 193° (SSW) 3,622 - -63.1°
Reaches altitude 10° 01:01:40 10° 189° (S) 2,668 - -63.3°
Maximum altitude 01:07:45 58° 112° (ESE) 1,079 - -63.8°
Drops below altitude 10° 01:13:43 10° 34° (NE) 2,615 - -64.2°
Sets 01:16:14 0° 31° (NNE) 3,545 - -64.3°
